Harlingen, TX

10:46 AM CDT on March 26, 2017 (GMT -0500)
Valley International

Weather History for KHRL - November, 2011

Change the Weather History Date:

Monday, November 7, 2011

  Actual Average Record
Temperature  
Mean Temperature 81 °F 71 °F  
Max Temperature 88 °F 83 °F 92 °F (1947)
Min Temperature 73 °F 60 °F 35 °F (1959)
Degree Days  
Heating Degree Days 0 1  
Month to date heating degree days 9 2  
Since 1 July heating degree days 11 5  
Cooling Degree Days 16 7  
Month to date cooling degree days 53 52  
Year to date cooling degree days 4479 3828  
Growing Degree Days 30 (Base 50)    
Moisture  
Dew Point 68 °F    
Average Humidity 67    
Maximum Humidity 84    
Minimum Humidity 50    
Precipitation  
Precipitation 0.00 in 0.08 in 1.00 in (2009)
Month to date precipitation T 0.61  
Year to date precipitation 6.66 23.03  
Sea Level Pressure  
Sea Level Pressure 29.93 in    
Wind  
Wind Speed 16 mph (SSE)    
Max Wind Speed 29 mph    
Max Gust Speed 35 mph    
Visibility 10 miles    
Events      
T = Trace of Precipitation, MM = Missing Value Source: NWS Daily Summary

Daily Weather History Graph

Daily Weather History Graph

Search for Another Location

Airport or City:

Trip Planner

Search our weather history database for the weather conditions in past years. The results will help you decide how hot, cold, wet, or windy it might be!

Date:

Astronomy

Nov. 07, 2011 Rise Set
Actual Time 6:43 AM CST 5:44 PM CST
Civil Twilight 6:19 AM CST 6:08 PM CST
Nautical Twilight 5:51 AM CST 6:36 PM CST
Astronomical Twilight 5:24 AM CST 7:03 PM CST
Moon 3:46 PM CST (11/7) 3:59 AM CST (11/7)
Length of Visible Light 11h 49m
Length of Day
11h 01m
Waxing Gibbous, 92% of the Moon is Illuminated
Nov 7
Waxing Gibbous
Nov 10
Full
Nov 18
Last Quarter
Nov 25
New
Dec 2
First Quarter

Hourly Weather History & Observations

Time (CST) Temp. Heat Index Dew Point Humidity Pressure Visibility Wind Dir Wind Speed Gust Speed Precip Events Conditions
12:52 AM 78.1 °F - 68.0 °F 71% 29.97 in 10.0 mi SSE 16.1 mph - N/A   Overcast
1:52 AM 78.1 °F - 68.0 °F 71% 29.97 in 10.0 mi SE 13.8 mph - N/A   Overcast
2:52 AM 77.0 °F - 68.0 °F 74% 29.95 in 10.0 mi SSE 13.8 mph - N/A   Mostly Cloudy
3:52 AM 75.9 °F - 68.0 °F 76% 29.95 in 10.0 mi SSE 11.5 mph - N/A   Mostly Cloudy
4:52 AM 75.9 °F - 68.0 °F 76% 29.94 in 10.0 mi SE 11.5 mph - N/A   Scattered Clouds
5:52 AM 73.0 °F - 68.0 °F 84% 29.95 in 10.0 mi SSE 8.1 mph - N/A   Clear
6:52 AM 73.0 °F - 68.0 °F 84% 29.96 in 10.0 mi SE 9.2 mph - N/A   Clear
7:52 AM 78.1 °F - 70.0 °F 76% 29.96 in 10.0 mi SE 12.7 mph - N/A   Clear
8:52 AM 82.4 °F 86.3 °F 69.8 °F 66% 29.97 in 10.0 mi SSE 21.9 mph 27.6 mph N/A   Clear
9:52 AM 84.9 °F 88.8 °F 69.1 °F 59% 29.98 in 10.0 mi SSE 25.3 mph 32.2 mph N/A   Scattered Clouds
10:52 AM 84.0 °F 86.5 °F 66.9 °F 56% 29.97 in 10.0 mi SSE 23.0 mph 28.8 mph N/A   Mostly Cloudy
11:52 AM 86.0 °F 88.8 °F 66.9 °F 53% 29.96 in 10.0 mi SSE 18.4 mph 26.5 mph N/A   Overcast
12:52 PM 87.1 °F 89.2 °F 66.0 °F 49% 29.92 in 10.0 mi SSE 19.6 mph 24.2 mph N/A   Overcast
1:52 PM 86.0 °F 88.2 °F 66.0 °F 51% 29.89 in 10.0 mi SSE 21.9 mph 29.9 mph N/A   Overcast
2:52 PM 84.9 °F 87.1 °F 66.0 °F 53% 29.87 in 10.0 mi SSE 23.0 mph 31.1 mph N/A   Mostly Cloudy
3:52 PM 84.0 °F 86.3 °F 66.0 °F 55% 29.86 in 10.0 mi SE 26.5 mph 33.4 mph N/A   Scattered Clouds
4:52 PM 82.4 °F 84.6 °F 66.2 °F 58% 29.87 in 10.0 mi SSE 24.2 mph - N/A   Partly Cloudy
5:52 PM 78.8 °F - 66.2 °F 65% 29.88 in 10.0 mi SSE 17.3 mph - N/A   Partly Cloudy
6:52 PM 77.0 °F - 66.9 °F 71% 29.90 in 10.0 mi SE 11.5 mph - N/A   Clear
7:52 PM 75.9 °F - 68.0 °F 76% 29.92 in 10.0 mi SSE 10.4 mph - N/A   Clear
8:52 PM 75.0 °F - 68.0 °F 79% 29.91 in 10.0 mi SE 10.4 mph - N/A   Clear
9:52 PM 75.0 °F - 68.0 °F 79% 29.93 in 10.0 mi SSE 9.2 mph - N/A   Clear
10:52 PM 75.9 °F - 68.0 °F 76% 29.92 in 10.0 mi SSE 11.5 mph - N/A   Clear
11:52 PM 73.9 °F - 68.0 °F 82% 29.91 in 10.0 mi SSE 10.4 mph - N/A   Partly Cloudy